This is the latest recevied weather packets stored in our database for station/object K2CCS. If no packets are shown the sender has not sent any weather packets the latest 10 day(s).
| Time | Temp. | Humidity | Pressure | Rain* | Wind** | Luminosity | Snow |
|---|---|---|---|---|---|---|---|
| 1778076295 | 10° C | 99% | 1012.4 hPa | 3.05 mm | - | 34 W/m² | - |
| 1778075992 | 10.56° C | 99% | 1012.5 hPa | 3.05 mm | - | 33 W/m² | - |
| 1778075689 | 10.56° C | 99% | 1012.3 hPa | 3.05 mm | - | 35 W/m² | - |
| 1778075385 | 10.56° C | 99% | 1012.2 hPa | 3.05 mm | - | 39 W/m² | - |
| 1778075081 | 10.56° C | 99% | 1012.1 hPa | 3.05 mm | - | 47 W/m² | - |
| 1778074778 | 10.56° C | 99% | 1012.3 hPa | 3.05 mm | - | 48 W/m² | - |
| 1778074475 | 10.56° C | 99% | 1012.1 hPa | 3.56 mm | - | 39 W/m² | - |
| 1778074172 | 11.11° C | 99% | 1012.2 hPa | 1.78 mm | - | 45 W/m² | - |
| 1778073869 | 10.56° C | 99% | 1011.9 hPa | 1.27 mm | - | 61 W/m² | - |
| 1778073566 | 10.56° C | 99% | 1012.1 hPa | 3.05 mm | - | 64 W/m² | - |
| 1778073263 | 11.11° C | 99% | 1012.1 hPa | 1.78 mm | - | 66 W/m² | - |
| 1778072960 | 11.67° C | 99% | 1012.4 hPa | 1.27 mm | - | 18 W/m² | - |
| 1778072656 | 11.67° C | 99% | 1012.3 hPa | 3.05 mm | - | 28 W/m² | - |
| 1778072354 | 11.67° C | 99% | 1012.3 hPa | 1.78 mm | - | 19 W/m² | - |
| 1778072052 | 11.67° C | 99% | 1012.3 hPa | 3.05 mm | - | 30 W/m² | - |
| 1778071750 | 11.67° C | 99% | 1012.1 hPa | 3.05 mm | - | 25 W/m² | - |
| 1778071447 | 12.22° C | 99% | 1012.3 hPa | 3.05 mm | - | 19 W/m² | - |
| 1778071145 | 12.22° C | 99% | 1012.2 hPa | 1.27 mm | - | 23 W/m² | - |
| 1778070843 | 12.22° C | 99% | 1012.4 hPa | 3.05 mm | - | 12 W/m² | - |
| 1778070540 | 12.22° C | 98% | 1012.3 hPa | 4.83 mm | - | 17 W/m² | - |
| 1778070237 | 12.22° C | 98% | 1012.6 hPa | 3.05 mm | - | 19 W/m² | - |
| 1778069935 | 12.22° C | 98% | 1012.8 hPa | 3.56 mm | - | 16 W/m² | - |
| 1778069632 | 12.22° C | 98% | 1012.6 hPa | 3.05 mm | - | 15 W/m² | - |
| 1778069329 | 12.22° C | 98% | 1012.9 hPa | 1.27 mm | - | 8 W/m² | - |
| 1778069027 | 12.22° C | 98% | 1012.1 hPa | 1.78 mm | - | 21 W/m² | - |
* Rain latest hour (hover to see other rain measurements)
** Current wind speed in m/s (hover to see current wind gust speed)